Home   Weather   Woodbridge Run   Past weeks
Flag for USA

Past Weather in Woodbridge Run, North Carolina, USA — Yesterday and Last 2 Weeks

Now
79 °F

Clear.


Feels Like: 82 °F
Forecast: 89 / 69 °F
Wind: No wind

Location: Davidson County Airport

Current Time: May 24, 2019 at 9:48:36 pm

Latest Report: May 24, 2019 at 9:00 pm


Visibility: 10 mi

Pressure: 30.10 "Hg

Humidity: 66%

Dew Point: 67 °F

Location of Woodbridge RunLocation

Past Weather in Woodbridge Run — Graph

°F

Woodbridge Run Temperature Yesterday

Maximum temperature yesterday: 84 °F (at 4:20 pm)
Minimum temperature yesterday: 67 °F (at 6:40 am)
Average temperature yesterday: 74 °F

High & Low Weather Summary for the Past Weeks

 TemperatureHumidityPressure
High92 °F (May 24, 4:20 pm)100% (May 9, 8:20 pm)30.29 "Hg (May 9, 8:20 pm)
Low45 °F (May 14, 6:20 am)30% (May 15, 1:00 pm)29.68 "Hg (May 12, 6:40 pm)
Average69 °F78%30.00 "Hg
* Reported May 9 8:00 pm — May 24 8:00 pm, Woodbridge Run. Weather by CustomWeather, © 2019

Note: Actual official high and low records may vary slightly from our data, if they occured in-between our weather recording intervals... More about our weather records

Advertising

Woodbridge Run Weather History for the Previous 24 Hours

Scroll right to see more
 ConditionsComfort  
Time TempWeatherWind HumidityBarometerVisibility
8:00 pm
Fri, May 24
83 °FScattered clouds.No wind59%30.08 "Hg10 mi
7:40 pm83 °FScattered clouds.No wind59%30.08 "Hg10 mi
7:20 pm86 °FSunny.No wind53%30.07 "Hg10 mi
7:00 pm88 °FSunny.3 mph49%30.07 "Hg10 mi
6:40 pm89 °FSunny.3 mph44%30.07 "Hg10 mi
6:20 pm90 °FSunny.3 mph46%30.06 "Hg10 mi
6:00 pm90 °FScattered clouds.6 mph43%30.07 "Hg10 mi
5:20 pm91 °FScattered clouds.5 mph40%30.07 "Hg10 mi
5:00 pm91 °FScattered clouds.5 mph41%30.07 "Hg10 mi
4:40 pm91 °FScattered clouds.5 mph42%30.07 "Hg10 mi
4:20 pm92 °FScattered clouds.6 mph42%30.07 "Hg10 mi
4:00 pm91 °FScattered clouds.5 mph42%30.08 "Hg10 mi
3:40 pm91 °FScattered clouds.5 mph41%30.08 "Hg10 mi
3:20 pm91 °FScattered clouds.3 mph42%30.08 "Hg10 mi
3:00 pm90 °FScattered clouds.8 mph45%30.08 "Hg10 mi
2:40 pm90 °FSunny.6 mph46%30.09 "Hg10 mi
2:00 pm89 °FSunny.3 mph47%30.10 "Hg10 mi
1:40 pm88 °FSunny.5 mph48%30.11 "Hg10 mi
1:00 pm87 °FSunny.3 mph48%30.12 "Hg10 mi
12:40 pm87 °FSunny.No wind49%30.12 "Hg10 mi
12:00 pm86 °FSunny.3 mph49%30.13 "Hg10 mi
11:20 am85 °FSunny.6 mph52%30.13 "Hg10 mi
11:00 am85 °FSunny.9 mph52%30.13 "Hg10 mi
10:20 am83 °FSunny.7 mph60%30.13 "Hg10 mi
10:00 am81 °FSunny.5 mph68%30.13 "Hg10 mi
9:40 am80 °FSunny.3 mph72%30.14 "Hg10 mi
9:20 am78 °FSunny.No wind80%30.14 "Hg10 mi
9:00 am77 °FSunny.3 mph85%30.13 "Hg10 mi
8:40 am75 °FSunny.3 mph93%30.13 "Hg10 mi
8:20 am74 °FSunny.5 mph99%30.13 "Hg10 mi
8:00 am71 °FSunny.No wind100%30.13 "Hg10 mi
7:40 am70 °FSunny.No wind100%30.13 "Hg7 mi
7:20 am68 °FFog.No wind100%30.13 "Hg4 mi
7:00 am67 °FFog.No wind100%30.12 "Hg3 mi
6:40 am67 °FFog.No wind100%30.12 "Hg3 mi
6:00 am67 °FFog.No wind100%30.11 "Hg3 mi
5:40 am67 °FFog.No wind100%30.10 "Hg3 mi
5:20 am68 °FFog.3 mph100%30.10 "Hg4 mi
5:00 am68 °FFog.No wind100%30.10 "Hg2 mi
4:40 am68 °FFog.No wind100%30.10 "Hg4 mi
4:20 am68 °FFog.No wind100%30.09 "Hg5 mi
4:00 am68 °FFog.No wind100%30.10 "Hg2 mi
3:20 am69 °FFog.No wind100%30.10 "Hg5 mi
3:00 am69 °FClear.No wind100%30.10 "Hg7 mi
2:40 am69 °FClear.No wind100%30.10 "Hg7 mi
2:00 am69 °FClear.No wind100%30.11 "Hg7 mi
1:20 am70 °FClear.No wind100%30.12 "Hg10 mi
1:00 am70 °FClear.No wind100%30.13 "Hg10 mi
12:40 am71 °FClear.No wind100%30.13 "Hg10 mi
12:20 am71 °FClear.No wind100%30.13 "Hg10 mi
12:00 am71 °FClear.3 mph100%30.13 "Hg10 mi
11:40 pm
Thu, May 23
72 °FClear.No wind100%30.13 "Hg10 mi
11:20 pm72 °FClear.No wind100%30.14 "Hg10 mi
11:00 pm73 °FClear.No wind100%30.14 "Hg10 mi
10:20 pm76 °FClear.No wind89%30.14 "Hg10 mi
10:00 pm77 °FClear.5 mph85%30.13 "Hg10 mi
9:40 pm77 °FClear.3 mph84%30.13 "Hg10 mi
9:20 pm78 °FClear.5 mph84%30.13 "Hg10 mi
9:00 pm78 °FClear.5 mph81%30.13 "Hg10 mi
Weather by CustomWeather, © 2019

See weather overview